User: anonymous   Login
Location: Caltech
(34.1382°N, 118.1253°W)
Time: 23:26:00
(UTC-07:00)
Language:

IRS-1A Rocket - Orbit

View from above orbital plane
View from above orbital plane
View from above satellite
View from above satellite

Ground track
Ground track

The orbit data is extracted from the following two-line orbital elements,

1 18961U 88021B   15148.92584435 -.00000286  00000-0 -15936-3 0  9998
2 18961 099.2876 132.9247 0056069 122.6838 290.8392 14.00630890390390
Epoch (UTC): 28 May 2015 22:13:12
Eccentricity: 0.0056069
inclination: 99.2876°
perigee height: 851 km
apogee height: 932 km
right ascension of ascending node: 132.9247°
argument of perigee: 122.6838°
revolutions per day: 14.00630890
mean anomaly at epoch: 290.8392°
orbit number at epoch: 39039

The dashed part of the orbit path shows where the satellite is in the earth's shadow,  

DLR